Vorticity
10 14 16 12 9 6 8 2 -0 -5 9 7 13 8 5 5 6 11 25 22 15 19 35 11 9 5 13 22 13 18 15 13 2 7 5 21 -7 17 2 10 7 7 11 10
8 11 7 13 11 17 10 5 7 15 5 20 23 15 8 8 10 18 -9 24 17 14 10 10 13 13 20 24 21 11 11 3 4 1 14 -20 24 1 7 6 4 9 11 9
11 0 9 31 16 15 16 20 3 7 13 17 4 7 12 7 8 10 12 14 27 33 23 22 24 20 19 19 14 9 11 14 11 17 -13 23 1 3 14 5 8 10 9 11
6 11 28 -6 9 24 15 8 5 13 6 9 13 17 10 20 4 16 22 20 15 31 18 23 24 7 15 17 11 16 6 8 5 12 17 14 16 17 7 9 10 9 10 9
-5 -6 -21 -2 -0 -11 5 -4 14 19 15 13 27 18 11 14 8 5 -0 14 28 9 27 11 38 52 28 30 9 9 13 11 14 20 29 23 7 5 7 11 9 9 9 8
-2 -12 22 14 30 25 27 7 18 14 19 13 -1 8 6 3 -1 8 9 -6 7 22 9 17 33 15 36 49 8 1 12 20 28 15 5 -2 0 5 10 10 9 9 10 9
9 -2 23 7 25 18 5 -4 -6 10 10 8 -1 -5 -1 8 5 5 4 12 10 3 4 3 19 -8 21 37 40 14 16 20 13 5 3 8 10 11 12 10 8 9 9 9
16 29 57 -19 1 9 -10 14 4 -0 7 -0 2 2 11 10 16 11 12 10 13 9 10 18 2 14 -3 -1 2 29 36 -9 1 13 9 6 9 13 10 8 9 8 9 9
9 -5 -6 -1 -4 6 53 -6 13 15 0 2 8 11 6 8 18 8 6 12 12 6 11 10 23 10 11 14 13 27 34 7 16 5 6 10 16 12 9 7 7 7 9 10
-2 18 29 19 23 37 30 3 20 9 -4 7 10 10 10 8 5 5 17 10 5 10 11 10 9 18 22 14 9 10 32 11 5 6 11 10 12 10 12 8 9 9 10 10
-3 -21 23 41 12 -10 11 23 -1 -2 6 13 9 7 6 6 7 6 6 10 10 11 7 10 13 11 10 16 22 30 21 15 -1 9 3 10 14 12 6 7 8 9 9 9
9 -7 -16 21 18 10 23 19 -3 -1 10 11 6 4 6 6 4 3 4 7 12 18 11 14 12 18 17 6 7 18 17 14 -3 -3 6 9 12 14 11 11 10 11 12 10
29 -18 28 44 29 6 4 9 -6 5 12 4 4 9 8 9 9 9 11 16 20 20 18 19 12 11 8 10 10 16 4 9 2 2 4 8 12 14 14 13 8 9 10 11
-15 14 32 53 17 11 14 8 13 10 3 8 13 14 14 14 16 16 19 15 13 16 14 16 15 12 11 7 14 9 13 12 3 2 5 5 11 16 16 14 9 7 10 8
31 41 49 5 -0 9 15 9 6 10 15 19 19 14 13 16 22 19 14 16 13 14 15 15 13 10 13 15 11 8 5 4 4 5 5 8 13 13 14 20 14 9 10 8
8 6 8 6 4 3 8 15 19 18 12 9 9 12 13 29 34 25 14 15 15 12 11 11 10 11 15 11 10 7 6 7 7 7 11 12 12 13 18 13 15 10 8 11
13 -1 0 9 13 16 17 7 6 10 11 13 11 14 8 13 13 13 15 16 17 16 15 13 12 10 10 11 8 8 8 9 10 11 12 13 13 15 18 17 14 6 11 10
11 -1 -6 9 8 9 4 16 21 16 13 10 10 11 11 13 13 13 14 16 17 17 17 18 17 13 12 11 12 14 13 13 13 13 13 14 13 16 18 13 13 15 8 11
25 9 5 19 11 10 9 10 10 11 12 12 15 16 15 16 18 18 17 14 13 12 11 12 13 14 15 15 15 16 17 16 15 15 16 17 18 19 16 17 15 8 10 12
18 19 26 16 14 12 17 8 10 12 14 13 15 20 18 15 13 14 14 14 13 13 13 13 14 14 15 15 15 14 14 15 16 16 17 17 17 14 12 11 15 9 12 13
16 16 16 10 8 10 8 11 14 14 16 20 12 10 10 9 12 13 14 14 12 13 13 13 13 13 12 12 12 13 14 15 15 14 14 16 14 14 15 9 4 14 10 12
13 10 9 13 7 9 10 13 19 16 10 8 10 11 11 9 9 9 10 10 9 10 10 10 11 12 12 12 11 11 12 11 12 13 13 14 13 11 9 8 9 12 9 12
15 9 6 14 9 10 12 16 11 7 7 9 8 10 11 10 10 11 12 12 12 13 12 12 11 11 11 11 11 10 10 11 11 10 14 15 12 8 7 5 1 3 4 10
22 10 9 7 9 12 13 14 10 7 10 7 7 10 11 12 11 11 11 12 13 13 13 13 12 12 12 12 13 12 12 11 9 10 13 11 11 14 14 17 12 13 10 8
22 18 14 13 12 13 12 11 10 9 6 9 9 11 11 11 11 10 11 11 11 11 12 13 14 14 14 14 14 14 14 13 13 16 17 19 16 11 11 15 14 10 9 8
12 12 11 11 13 12 12 11 9 8 9 8 10 11 10 10 10 10 10 10 10 11 12 12 13 14 14 15 15 15 15 14 13 11 11 11 12 15 17 16 11 12 12 10
12 12 13 13 13 12 12 11 10 8 8 9 11 10 11 10 9 10 10 11 11 11 12 12 13 13 13 13 13 13 14 13 12 13 16 16 13 10 11 12 10 11 14 13
Height
3045 3044 3049 3048 3048 3045 3045 3044 3044 3038 3035 3034 3030 3026 3023 3017 3012 3009 3006 3002 2999 2998 2998 3000 3000 3003 3004 3004 3004 3008 3010 3013 3016 3018 3021 3024 3027 3030 3032 3032 3034 3035 3036 3037
3037 3037 3040 3039 3036 3033 3036 3035 3034 3031 3027 3022 3023 3019 3014 3012 3008 3002 2999 2993 2990 2989 2988 2988 2990 2990 2991 2993 2994 2996 2997 3000 3004 3008 3011 3015 3018 3021 3024 3026 3026 3029 3030 3030
3030 3034 3033 3031 3022 3025 3025 3026 3024 3022 3017 3017 3015 3013 3009 3006 3004 2999 2991 2988 2983 2980 2978 2978 2978 2979 2979 2982 2985 2985 2987 2990 2995 2999 3005 3008 3009 3012 3015 3019 3020 3022 3024 3025
3029 3029 3024 3014 3018 3016 3016 3017 3016 3014 3011 3009 3008 3005 3003 3000 2996 2993 2987 2982 2978 2974 2972 2969 2968 2969 2970 2971 2973 2976 2981 2985 2988 2993 2997 3000 3003 3006 3010 3013 3016 3018 3018 3019
3026 3018 3014 3010 3006 3011 3009 3005 3008 3006 3005 3003 3001 2998 2998 2994 2991 2988 2984 2978 2973 2970 2967 2963 2960 2960 2960 2962 2968 2973 2978 2982 2986 2991 2994 2997 3000 3003 3005 3008 3011 3012 3014 3014
3016 3012 3005 2997 3002 3002 3003 2996 3000 2998 2998 2995 2994 2995 2994 2988 2986 2984 2981 2977 2971 2967 2964 2960 2958 2957 2956 2957 2963 2970 2974 2979 2983 2987 2990 2994 2997 2998 3001 3004 3005 3008 3009 3009
3006 3004 2996 2992 2996 2996 2997 2993 2991 2991 2991 2990 2990 2989 2986 2984 2982 2980 2977 2974 2970 2967 2964 2962 2959 2958 2956 2957 2961 2965 2970 2976 2979 2983 2987 2990 2993 2995 2997 2999 3001 3003 3004 3005
2999 2998 2991 2988 2990 2989 2990 2988 2988 2987 2986 2985 2984 2983 2981 2979 2977 2975 2973 2970 2968 2966 2963 2962 2960 2959 2958 2958 2959 2962 2967 2971 2975 2978 2982 2985 2988 2991 2994 2996 2996 2997 2998 3001
2991 2986 2983 2982 2982 2981 2980 2981 2982 2982 2982 2981 2980 2978 2976 2974 2973 2971 2969 2967 2965 2963 2961 2959 2958 2957 2958 2958 2959 2959 2961 2967 2972 2973 2977 2981 2984 2987 2989 2991 2991 2993 2995 2997
2983 2975 2977 2977 2977 2975 2977 2976 2977 2977 2978 2977 2976 2974 2972 2971 2969 2967 2965 2963 2962 2960 2959 2957 2956 2956 2956 2955 2956 2958 2960 2965 2968 2970 2974 2976 2980 2982 2983 2984 2986 2989 2990 2991
2969 2968 2968 2966 2967 2970 2970 2971 2972 2973 2973 2972 2971 2970 2968 2967 2965 2963 2961 2960 2959 2957 2956 2955 2953 2952 2952 2953 2953 2953 2957 2961 2965 2969 2971 2972 2975 2978 2977 2980 2983 2983 2986 2988
2956 2964 2963 2957 2962 2963 2963 2966 2968 2968 2968 2967 2966 2965 2964 2962 2960 2958 2957 2955 2953 2953 2952 2952 2951 2950 2951 2951 2952 2954 2957 2960 2963 2965 2967 2968 2970 2972 2974 2975 2977 2979 2981 2983
2949 2955 2951 2950 2953 2956 2959 2961 2963 2963 2962 2961 2961 2960 2958 2956 2954 2951 2950 2949 2948 2947 2947 2948 2948 2949 2949 2950 2951 2952 2955 2958 2960 2961 2963 2965 2967 2968 2968 2970 2972 2974 2975 2976
2946 2945 2943 2945 2949 2952 2955 2956 2957 2956 2956 2956 2954 2951 2949 2948 2946 2945 2944 2943 2942 2942 2942 2943 2945 2946 2946 2947 2949 2950 2953 2955 2957 2958 2959 2960 2962 2962 2962 2964 2965 2967 2970 2971
2936 2935 2937 2942 2944 2948 2950 2951 2951 2951 2949 2948 2946 2944 2942 2940 2939 2938 2938 2937 2937 2937 2937 2938 2940 2941 2942 2944 2945 2947 2949 2951 2952 2953 2954 2954 2955 2955 2957 2958 2959 2962 2965 2967
2931 2934 2936 2938 2940 2942 2944 2945 2945 2944 2943 2941 2940 2938 2936 2935 2933 2932 2931 2931 2931 2932 2933 2934 2935 2937 2938 2940 2942 2943 2944 2946 2946 2947 2948 2948 2949 2950 2951 2952 2954 2957 2959 2961
2929 2930 2932 2934 2936 2938 2939 2939 2939 2938 2938 2937 2935 2934 2933 2932 2930 2929 2928 2928 2928 2928 2929 2930 2931 2932 2934 2935 2937 2938 2939 2940 2940 2941 2941 2942 2943 2944 2945 2947 2949 2951 2954 2957
2926 2926 2929 2931 2932 2933 2934 2934 2932 2932 2933 2932 2931 2931 2930 2928 2927 2926 2925 2925 2925 2924 2925 2926 2928 2929 2930 2931 2932 2932 2933 2934 2934 2935 2936 2936 2937 2939 2940 2942 2944 2947 2950 2953
2920 2922 2923 2925 2927 2928 2929 2928 2929 2929 2929 2928 2928 2927 2926 2924 2924 2923 2922 2922 2921 2922 2923 2923 2924 2925 2926 2926 2927 2928 2929 2929 2930 2930 2931 2932 2933 2934 2936 2938 2941 2943 2947 2949
2915 2917 2919 2921 2922 2924 2924 2925 2926 2926 2925 2924 2924 2924 2923 2923 2922 2921 2921 2921 2921 2921 2921 2922 2922 2922 2923 2923 2924 2925 2925 2925 2926 2926 2927 2928 2929 2931 2933 2936 2937 2940 2943 2945
2912 2914 2916 2918 2920 2920 2921 2922 2923 2921 2921 2921 2922 2922 2922 2922 2922 2922 2921 2921 2921 2921 2920 2920 2920 2920 2920 2921 2921 2922 2922 2923 2923 2923 2924 2925 2926 2928 2930 2932 2934 2937 2938 2940
2910 2911 2913 2915 2917 2918 2919 2920 2919 2918 2919 2920 2920 2921 2921 2921 2921 2921 2920 2920 2919 2919 2919 2919 2918 2918 2918 2918 2919 2919 2919 2920 2920 2921 2923 2924 2924 2926 2927 2929 2931 2932 2934 2936
2908 2909 2910 2912 2913 2915 2916 2916 2916 2917 2918 2919 2920 2920 2920 2920 2919 2919 2918 2918 2918 2917 2917 2917 2916 2916 2916 2915 2916 2916 2917 2917 2918 2919 2920 2921 2921 2923 2925 2926 2928 2929 2930 2931
2904 2905 2907 2909 2911 2912 2912 2913 2914 2915 2916 2917 2918 2918 2918 2917 2917 2916 2916 2916 2916 2915 2915 2914 2914 2914 2913 2913 2913 2914 2914 2915 2916 2916 2917 2918 2919 2920 2921 2923 2924 2924 2925 2926
2900 2902 2904 2906 2907 2908 2909 2911 2912 2913 2914 2915 2915 2915 2915 2915 2915 2915 2915 2914 2914 2914 2913 2913 2912 2912 2912 2911 2911 2911 2912 2913 2913 2914 2915 2915 2916 2916 2918 2918 2919 2919 2920 2921
2898 2900 2901 2903 2904 2905 2907 2909 2911 2911 2912 2912 2913 2913 2913 2913 2913 2913 2913 2912 2912 2912 2911 2911 2910 2909 2909 2909 2909 2909 2909 2909 2910 2910 2911 2911 2912 2913 2913 2914 2915 2916 2916 2916
2896 2897 2899 2900 2902 2903 2905 2907 2908 2909 2909 2910 2910 2911 2911 2911 2911 2911 2911 2910 2910 2909 2909 2908 2907 2907 2906 2906 2906 2906 2906 2906 2906 2907 2907 2908 2908 2909 2910 2910 2910 2911 2911 2911